Location: Champignolles
(47.0543°N, 4.5663°E)
Time: 05:06:46
(UTC+00:00)

N. Korean satellite - Pass Details

Date: 13 December 2021
Orbit: 447 x 491 km, 97.3° (Epoch: 25 January)

Event Time Altitude Azimuth Distance (km) Brightness Sun altitude
Rises 05:11:45 0° 10° (N) 2,462 10.1 -20.7°
Enters shadow 05:13:21 - 9° (N) 1,773 9.4 -20.5°
Exits shadow 05:19:19 21° 205° (SSW) 1,075 8.2 -19.5°
Drops below altitude 10° 05:20:32 10° 201° (SSW) 1,582 9.1 -19.3°
Sets 05:22:34 0° 199° (SSW) 2,455 10.1 -18.9°
